{"data":{"norad_id":41752,"intl_designator":"2016-054A","name":"INSAT-3DR","alt_names":[],"object_type":"PAYLOAD","status":"ACTIVE","operator":null,"country":"IND","launch_date":"2016-09-08","launch_site_code":"SRILR","launch_vehicle":null,"mission":null,"orbit_class":"UNKNOWN","rcs_meters":8.2903,"size_class":null,"mass_kg":null,"dimensions":null,"purposes":["comms","earth_obs"],"wikipedia_slug":null,"has_3d_model":false,"image_url":null,"decayed_at":null,"tle_current":{"epoch":"2026-05-25T02:23:08.127168Z","epoch_age_seconds":62964,"freshness":"FRESH","line1":"1 41752U 16054A   26145.09939962 -.00000080  00000+0  00000+0 0  9997","line2":"2 41752   0.1161  87.2584 0010751 190.7342  74.4899  1.00272375 35583","mean_motion":1.00272375,"eccentricity":0.0010751,"inclination_deg":0.1161,"raan_deg":87.2584,"arg_perigee_deg":190.7342,"mean_anomaly_deg":74.4899,"bstar":0,"rev_number":3558,"period_min":1436.0884540732,"perigee_km":35741.098438072,"apogee_km":35831.760689097,"semimajor_km":42164.566563584,"source":"CELESTRAK","updated_at":"2026-05-25T13:38:14.007248Z"}}}